Satellite-Ground Cal/Val Site Overpasses Predictions

Prediction of Satellite NPP Overpassing Cal/Val Site: Antarctic Dome C

Ground Cal/Val Site Location: Latitude: -75.10, Longitude: 123.35; Satellite-Ground Site NADIR distance within 100 km.

Table of predicted overpasses for the next 14.0 days since TLE Epoch: 8/21/2020
Interval Starting Time Ending Time Minimum Distance Time Minimum Distance (km)
1 08/22/2020 15:01:15 08/22/2020 15:01:39 08/22/2020 15:01:27 58.71
2 08/23/2020 14:42:26 08/23/2020 14:42:51 08/23/2020 14:42:38 50.41
3 08/24/2020 07:44:06 08/24/2020 07:44:27 08/24/2020 07:44:17 69.50
4 08/25/2020 07:25:15 08/25/2020 07:25:42 08/25/2020 07:25:28 38.48
5 08/27/2020 15:07:43 08/27/2020 15:07:50 08/27/2020 15:07:46 96.56
6 08/28/2020 14:48:42 08/28/2020 14:49:11 08/28/2020 14:48:56 14.64
7 08/30/2020 07:31:33 08/30/2020 07:32:02 08/30/2020 07:31:47 2.45
8 09/02/2020 14:55:01 09/02/2020 14:55:29 09/02/2020 14:55:15 21.86
9 09/03/2020 14:36:19 09/03/2020 14:36:34 09/03/2020 14:36:27 85.12
